www.pogodaiklimat.ru
Время
и дата
23:54 30.12
00:54 31.12
01:32 31.12
01:40 31.12
01:54 31.12
02:03 31.12
02:11 31.12
02:43 31.12
02:54 31.12
03:12 31.12
03:19 31.12
03:23 31.12
03:40 31.12
03:54 31.12
04:44 31.12
04:54 31.12
05:01 31.12
05:10 31.12
05:16 31.12
05:54 31.12
06:08 31.12
06:54 31.12
07:00 31.12
07:14 31.12
07:27 31.12
07:38 31.12
07:54 31.12
08:29 31.12
08:36 31.12
08:54 31.12
08:57 31.12
09:10 31.12
09:54 31.12
10:45 31.12
10:54 31.12
11:54 31.12
12:32 31.12
12:54 31.12
13:04 31.12
13:40 31.12
13:54 31.12
14:54 31.12
15:24 31.12
15:54 31.12
16:06 31.12
16:54 31.12
17:54 31.12
18:04 31.01
Ветер
(напр.,м/с)
Видим. Явления Облачность Т
(С)
Тd
(С)
f
(%)
Тe
(С)
Тes
(С)
Комфортность P
(гПа)
Po
(гПа)
Тmin
(С)
Tmax
(С)
R
(мм)
R24
(мм)
S
(см)
ЮЗ 1 6 км дымка 10/10 300 м +8.3 +7.8 97 +6 +6 1011.8 976.7
З 1 6 км дымка 10/10 510 м +8.3 +7.2 93 +6 +6 1012.3 977.4 +8.3 +8.9
штиль 0 4 км дымка 10/10 450 м +8.3 +7.2 93 +7 +7 977.4
штиль 0 5 км дымка 10/10 450 м +8.3 +7.8 97 +7 +7 977.4
Ю 1 6 км дымка 10/10 360 м +8.3 +7.2 93 +6 +6 1012.3 977.4
Ю 1 6 км дымка 10/10 360 м +8.3 +7.2 93 +6 +6 977.7
ЮЗ 1 6 км дымка 10/10 270 м +8.3 +7.2 93 +6 +6 977.7
ЮЗ 1 8 км дымка 10/10 270 м +8.9 +7.8 93 +7 +7 977.7
З 1 6 км дымка 10/10 210 м +8.9 +7.2 89 +7 +7 1012.4 977.7
Ю 1 3 км дымка 10/10 210 м +8.3 +7.2 93 +6 +6 977.4
Ю 1 2 км дымка 10/10 210 м +8.3 +7.2 93 +6 +6 977.4
Ю 1 5 км дымка 10/10 210 м +8.3 +7.2 93 +6 +6 977.1
Ю 1 6 км дымка 10/10 300 м +8.9 +7.8 93 +7 +7 977.1
Ю 1 6 км дымка 10/10 210 м +8.9 +7.8 93 +7 +7 1011.7 977.1
штиль 0 4 км дымка 10/10 180 м +8.9 +7.8 93 +8 +8 977.1
штиль 0 4 км дымка 10/10 150 м +8.9 +7.8 93 +8 +8 1011.7 977.1
штиль 0 3 км дымка 10/10 150 м +8.3 +7.2 93 +7 +7 977.1
штиль 0 4 км дымка 10/10 120 м +8.9 +7.2 89 +8 +8 977.4
штиль 0 5 км дымка 10/10 120 м +8.3 +7.2 93 +7 +7 977.1
штиль 0 5 км дымка 10/10 210 м +8.9 +7.8 93 +8 +8 1012.0 977.1
штиль 0 5 км дымка 10/10 180 м +8.9 +7.8 93 +8 +8 977.4
штиль 0 4 км дымка 10/10 210 м +8.9 +7.2 89 +8 +8 1012.7 977.7 +8.3 +8.9 2.8
штиль 0 3 км дымка 10/10 180 м +8.3 +7.2 93 +7 +7 977.7
штиль 0 5 км слабый дождь, дымка 10/10 150 м +8.9 +7.8 93 +8 +8 977.7
штиль 0 4 км слабый дождь, дымка 10/10 150 м +8.9 +7.2 89 +8 +8 977.4
ЮВ 1 5 км дымка 8/8 330 м +8.3 +6.7 90 +6 +6 977.1
штиль 0 6 км дымка 8/5 420 м
[Ac]
+8.3 +7.2 93 +7 +7 1012.3 977.4
СЗ 1 4 км дымка 10/8 600 м
[Ac]
+8.3 +7.2 93 +6 +6 977.7
штиль 0 3 км дымка 10/8 600 м
[Ac]
+8.3 +7.2 93 +7 +7 978.0
штиль 0 2 км дымка 8/8 600 м
[Ac]
+8.3 +7.8 97 +7 +7 1012.8 978.0
штиль 0 3 км дымка 8/5 600 м
[Ac]
+8.3 +7.8 97 +7 +7 977.7
ЮЗ 1 8 км дымка 5/2 600 м
[Ac]
+9.4 +7.8 90 +7 +8 978.0
З 1 6 км дымка 5/5 1800 м +10.6 +8.3 86 +9 +10 1012.9 978.0
СЗ 1 10 км мгла 8/8 390 м +11.1 +8.3 83 +9 +10 978.0
З 1 8 км мгла 10/10 330 м +10.6 +7.8 83 +9 +9 1012.9 978.0
ЮЗ 2 13 км 10/10 360 м +11.1 +7.8 80 +9 +9 1012.2 977.4
ЮЗ 2 16 км 10/10 510 м +11.7 +7.2 74 +9 +9 977.1
ЮЗ 2 14 км 10/10 600 м +11.7 +7.2 74 +10 +10 1011.4 976.7 +8.3 +11.7
З 2 14 км 10/10 600 м +11.7 +7.2 74 +10 +10 976.7
ЮЗ 2 14 км 8/8 660 м +11.1 +6.7 74 +9 +9 976.7
ЮЗ 2 14 км 10/10 540 м +11.1 +6.7 74 +8 +8 1011.5 976.7
ЮЗ 1 16 км 10/10 570 м +11.1 +6.7 74 +9 +9 1011.4 976.7
ЮЗ 1 16 км 10/8 540 м
[Ac]
+11.1 +6.7 74 +9 +9 976.4
штиль 0 16 км 10/5 570 м
[Ac]
+10.6 +6.7 77 +10 +10 1011.2 976.4
З 1 16 км 10/8 570 м
[Ac]
+10.6 +6.7 77 +9 +9 977.1
штиль 0 16 км 10/8 660 м
[Ac]
+10.6 +6.7 77 +10 +10 1011.3 976.7
штиль 0 16 км 10/8 510 м
[Ac]
+9.4 +6.7 83 +9 +9 1011.9 977.1
Ю 1 16 км 10/5 540 м
[Ac]
+10.0 +6.7 80 +9 +9 977.4
Местоположение метеостанции Wilkes-Barre / Scranton International Airport: широта 41.3389 долгота -75.7267 высота над уровнем моря 293 м.
В архиве по умолчанию представлена погода в Скрэнтоне за последние 1-2 суток. Обновление информации о фактической погоде в базе происходит ежечасно! Архивные данные за месяц целиком и за предыдущие месяцы Вы можете получить, выбрав интересующий диапазон дат из раскрывающегося списка и нажав кнопку "Ввод!".
Внимание! Архив погоды МЕТАР в базе сайта по станциям, не включенным в климатический монитор, хранится не более 60 дней. Нет смысла пытаться выбрать более раннюю дату.
*Определитесь, кто Вы:
Внимание! Время в таблицах - местное (без учета летнего времени). Для получения всемирного времени необходимо вычесть поправку, которая равна -5 ч.
Смотрите также архив погоды в соседних городах и на ближайших метеорологических станциях:
Партнеры нашего сайта:      
Пояснения к столбцам:
  • Ветер - указаны скорость ветра в м/с - средняя за 10 мин, порывы в срок и между сроками (в фигурных скобках) и направление, откуда дует ветер: С - северный,
  • СВ - северо-восточный, В - восточный, ЮВ - юго-восточный, Ю - южный, ЮЗ - юго-западный, З - западный, СЗ - северо-западный.
  • Видимость - горизонтальная дальность видимости в метрах или километрах. При видимости от 1 до 10 км при отсутствии осадков обычно наблюдается дымка, при ухудшении видимости до 1 км и менее - туман. В сухую погоду видимость может ухудшаться дымом, пылью или мглою.
  • Явления - указаны атмосферные явления, наблюдавшиеся в срок или в последний час перед сроком; фигурными скобками обозначены явления, наблюдавшиеся между сроками (за 1-3 часа до срока); квадратными скобками обозначены град или гололедные отложения с указанием их диаметра в мм.
  • Облачность - указаны через наклонную черту общая и нижняя облачность в баллах и высота нижней границы облаков в метрах; квадратными скобками обозначены формы облаков: Ci - перистые, Cs - перисто-слоистые, Cc - перисто-кучевые, Ac - высококучевые, As - высокослоистые, Sc - слоисто-кучевые, Ns - слоисто-дождевые, Cu - кучевые, Cb - кучево-дождевые. Подробнее классификацию облаков см. в Атласе облаков (PDF).
  • T - Температура воздуха - температура, измеренная на высоте 2 м над землей.
  • Td - Температура точки росы - температура, при понижении до которой содержащийся в воздухе водяной пар достигнет насыщения.
  • f - Относительная влажность воздуха - влажноcть воздуха, измеренная на высоте 2 м над землей.
  • Te - Эффективная температура - температура, которую ощущает одетый по сезону человек в тени. Характеристика душности погоды. При расчете учитывается влияние влажности воздуха и скорости ветра на теплоощущения человека.
  • Tes - Эффективная температура на солнце - температура, которую ощущает человек, с поправкой на солнечный нагрев. Характеристика знойности погоды. Зависит от высоты солнца над горизонтом, облачности и скорости ветра. Ночью, в пасмурную погоду, а также при ветре 12 м/с и более поправка равна нулю.
  • P - Атмосферное давление - приведенное к уровню моря атмосферное давление.
  • Po - Атмосферное давление - измеренное на уровне метеостанции атмосферное давление.
  • Tmin - Минимальная температура - минимум температуры воздуха на высоте 2 м над землей.
  • Tmax - Максимальная температура - максимум температуры воздуха на высоте 2 м над землей.
  • R - Количество осадков - Количество выпавших осадков за период времени, мм. При наведении курсора мыши на число - период времени, за который выпало указанное количество осадков.
  • R24 - Количество осадков - Количество выпавших осадков за 24 часа, мм.
  • S - Снежный покров - Высота снежного покрова, см. При наведении курсора мыши на число - состояние снежного покрова и степень покрытия местности в баллах.